Regional Weather Roundup
Issued by NWS Binghamton, NY

Home | Current Version | Previous Version | Text Only | Print | Product List | Glossary On
Versions: 1 2 3 4 5 6 7 8 9 10 11 12 13 14 15 16 17 18 19 20 21 22 23 24 25 26 27 28
000
ASUS41 KBGM 230810
RWRBGM

REGIONAL WEATHER ROUNDUP
NATIONAL WEATHER SERVICE BINGHAMTON NY
400 AM EDT THU MAR 23 2017

Note: "fair" indicates few or no clouds below 12,000 feet with no
significant weather and/or obstructions to visibility.

* = Station(s) that does not report precipitation, such as rain,
snow, etc, also no thunder or fog.

NYZ009-015>018-022>025-036-037-044>046-055>057-062-230900
...Central New York...

CITY           SKY/WX    TMP DP  RH WIND       PRES   REMARKS
Binghamton     CLEAR     12   5  73 NW5       30.41R WCI   4
Cortland       FAIR       9   5  85 CALM      30.46R
Dansville      CLEAR     15   8  73 SE3       30.54R
Elmira         CLEAR      9   3  77 W5        30.50R WCI   1
Seneca Falls   SUNNY     18  10  73 W6        30.54R WCI   9
Ithaca         CLEAR      4   1  88 CALM      30.48R
Hamilton       CLEAR      3   0  85 CALM      30.46R
Monticello     CLEAR     14   3  62 W9        30.39S WCI   2
Norwich        CLEAR      1   0  92 CALM      30.48R
Oneonta        CLEAR      7   1  78 CALM      30.38R
Penn Yan       CLEAR     19   7  59 VRB5      30.50R WCI  12
Rome           CLEAR      6   2  83 CALM      30.52R
Sidney         CLEAR      9   7  92 SW3       30.47R
Syracuse       PTCLDY    13   6  74 CALM      30.52R
$$

PAZ038>040-043-044-047-048-072-230900
...Northeast Pennsylvania...

CITY           SKY/WX    TMP DP  RH WIND       PRES   REMARKS
Hazleton       CLEAR     18   3  53 NW12      30.44S WCI   5
Scranton       CLEAR     19   4  51 CALM      30.47R
$$
&&
KEY
WCI = Wind Chill Index
VSB = Visibility
HX  = Heat Index
$$




USA.gov is the U.S. government's official web portal to all federal, state and local government web resources and services.